Overview Statistics Trail Chart Weather Telemetry Raw packets
 

This is the latest recevied weather packets stored in our database for station/object N7IGG. If no packets are shown the sender has not sent any weather packets the latest 10 day(s).

<< 49 50 51 52 53 54 55 >>
Time Temp. Humidity Pressure Rain* Wind** Luminosity Snow
1777834280 16.67° C 76% 1013.6 hPa 0 mm - 84 W/m² -
1777833976 16.11° C 75% 1013.8 hPa 0 mm - 192 W/m² -
1777833673 17.22° C 74% 1013.7 hPa 0 mm - 64 W/m² -
1777833369 17.22° C 74% 1013.8 hPa 0 mm - 582 W/m² -
1777833066 17.22° C 71% 1013.8 hPa 0 mm - 67 W/m² -
1777832765 18.89° C 65% 1013.7 hPa 0 mm - 67 W/m² -
1777832463 20.56° C 59% 1013.7 hPa 0 mm - 132 W/m² -
1777832159 20° C 60% 1013.8 hPa 0 mm - 65 W/m² -
1777831856 20° C 61% 1013.8 hPa 0 mm - 79 W/m² -
1777831553 20° C 62% 1013.9 hPa 0 mm - 51 W/m² -
1777831250 19.44° C 65% 1013.9 hPa 0 mm - 50 W/m² -
1777830947 18.33° C 70% 1014 hPa 0 mm - 51 W/m² -
1777830645 17.78° C 72% 1013.9 hPa 0 mm - 51 W/m² -
1777830342 17.22° C 76% 1014 hPa 0 mm - 50 W/m² -
1777830050 16.67° C 77% 1014.1 hPa 0 mm - 51 W/m² -
1777829733 16.11° C 78% 1014.1 hPa 0 mm - 77 W/m² -
1777829429 16.11° C 77% 1014 hPa 0 mm - 48 W/m² -
1777829127 16.11° C 77% 1014.2 hPa 0 mm - 46 W/m² -
1777828824 16.11° C 77% 1014 hPa 0 mm - 385 W/m² -
1777828521 16.11° C 76% 1014 hPa 0 mm - 93 W/m² -
1777828218 16.11° C 77% 1014.1 hPa 0 mm - 91 W/m² -
1777827914 16.67° C 76% 1014.1 hPa 0 mm - 50 W/m² -
1777827612 16.11° C 76% 1014.2 hPa 0 mm - 69 W/m² -
1777827309 16.11° C 76% 1014.2 hPa 0 mm - 135 W/m² -
1777827005 16.67° C 76% 1014 hPa 0 mm - 48 W/m² -

* Rain latest hour (hover to see other rain measurements)
** Current wind speed in m/s (hover to see current wind gust speed)